| time (UTC) | temp F | wind direction | speed MPH | gust MPH | rain 1hr in | rain 24hr in | rain mn in | humidity % | barometer mb |
| 20260905231506 | 66 | 338 | 0.0 | 0.0 | 0.00 | 0.00 | 0.00 | 83 | 1021.9 |
| 20260905230004 | 66 | 338 | 0.0 | 0.0 | 0.00 | 0.00 | 0.00 | 82 | 1022.1 |
| 20260905224502 | 67 | 338 | 0.0 | 0.0 | 0.00 | 0.00 | 0.00 | 81 | 1022.1 |
| 20260905223058 | 68 | 338 | 0.0 | 3.0 | 0.00 | 0.00 | 0.00 | 79 | 1022.1 |
| 20260905221557 | 68 | 333 | 2.0 | 4.0 | 0.00 | 0.00 | 0.00 | 79 | 1021.9 |
| 20260905220055 | 68 | 316 | 3.0 | 6.0 | 0.00 | 0.00 | 0.00 | 79 | 1021.9 |
| 20260905214554 | 69 | 314 | 1.0 | 3.0 | 0.00 | 0.00 | 0.00 | 78 | 1021.9 |
| 20260905213057 | 69 | 324 | 2.0 | 4.0 | 0.00 | 0.00 | 0.00 | 77 | 1021.9 |
| 20260905211553 | 70 | 337 | 1.0 | 3.0 | 0.00 | 0.00 | 0.00 | 75 | 1021.9 |
| 20260905210056 | 71 | 337 | 0.0 | 3.0 | 0.00 | 0.00 | 0.00 | 74 | 1022.1 |
| 20260905204552 | 71 | 350 | 1.0 | 5.0 | 0.00 | 0.00 | 0.00 | 73 | 1022.2 |
| 20260905203058 | 72 | 25 | 2.0 | 4.0 | 0.00 | 0.00 | 0.00 | 72 | 1022.1 |
| 20260905201602 | 73 | 12 | 2.0 | 5.0 | 0.00 | 0.00 | 0.00 | 71 | 1022.1 |
| 20260905200055 | 73 | 13 | 2.0 | 6.0 | 0.00 | 0.00 | 0.00 | 69 | 1022.0 |
| 20260905194509 | 74 | 23 | 3.0 | 8.0 | 0.00 | 0.00 | 0.00 | 68 | 1021.9 |
| 20260905193015 | 74 | 26 | 4.0 | 7.0 | 0.00 | 0.00 | 0.00 | 67 | 1021.9 |
| 20260905191520 | 75 | 23 | 2.0 | 8.0 | 0.00 | 0.00 | 0.00 | 66 | 1021.7 |
| 20260905190008 | 76 | 17 | 5.0 | 8.0 | 0.00 | 0.00 | 0.00 | 65 | 1021.7 |
| 20260905184508 | 76 | 13 | 3.0 | 7.0 | 0.00 | 0.00 | 0.00 | 64 | 1021.7 |
| 20260905183006 | 77 | 19 | 5.0 | 8.0 | 0.00 | 0.00 | 0.00 | 63 | 1021.5 |
| 20260905181506 | 78 | 15 | 5.0 | 10.0 | 0.00 | 0.00 | 0.00 | 61 | 1021.3 |
| 20260905180006 | 79 | 343 | 5.0 | 11.0 | 0.00 | 0.00 | 0.00 | 60 | 1021.2 |
| 20260905174505 | 80 | 350 | 7.0 | 11.0 | 0.00 | 0.00 | 0.00 | 57 | 1021.1 |
| 20260905173005 | 81 | 346 | 6.0 | 11.0 | 0.00 | 0.00 | 0.00 | 56 | 1021.0 |
| 20260905171504 | 82 | 5 | 6.0 | 10.0 | 0.00 | 0.00 | 0.00 | 55 | 1021.0 |
| 20260905170004 | 82 | 5 | 6.0 | 11.0 | 0.00 | 0.00 | 0.00 | 54 | 1020.9 |
| 20260905164503 | 83 | 39 | 7.0 | 14.0 | 0.00 | 0.00 | 0.00 | 51 | 1020.9 |
| 20260905163002 | 84 | 9 | 5.0 | 11.0 | 0.00 | 0.00 | 0.00 | 49 | 1020.9 |
| 20260905161505 | 84 | 29 | 7.0 | 14.0 | 0.00 | 0.00 | 0.00 | 49 | 1020.9 |
| 20260905160003 | 85 | 335 | 6.0 | 15.0 | 0.00 | 0.00 | 0.00 | 48 | 1020.8 |
| 20260905154501 | 85 | 331 | 4.0 | 9.0 | 0.00 | 0.00 | 0.00 | 45 | 1020.7 |
| 20260905153000 | 85 | 330 | 3.0 | 7.0 | 0.00 | 0.00 | 0.00 | 44 | 1020.7 |
| 20260905151600 | 87 | 236 | 3.0 | 8.0 | 0.00 | 0.00 | 0.00 | 43 | 1020.9 |
| 20260905150101 | 87 | 261 | 3.0 | 6.0 | 0.00 | 0.00 | 0.00 | 42 | 1021.0 |
| 20260905144559 | 87 | 309 | 4.0 | 8.0 | 0.00 | 0.00 | 0.00 | 44 | 1020.9 |
| 20260905143058 | 86 | 319 | 4.0 | 7.0 | 0.00 | 0.00 | 0.00 | 44 | 1021.0 |
| 20260905141559 | 87 | 279 | 4.0 | 9.0 | 0.00 | 0.00 | 0.00 | 43 | 1021.1 |
| 20260905140112 | 87 | 249 | 2.0 | 7.0 | 0.00 | 0.00 | 0.00 | 43 | 1021.0 |
| 20260905134601 | 87 | 296 | 5.0 | 8.0 | 0.00 | 0.00 | 0.00 | 43 | 1021.2 |
| 20260905133054 | 86 | 306 | 4.0 | 11.0 | 0.00 | 0.00 | 0.00 | 44 | 1021.4 |
| 20260905131555 | 86 | 315 | 5.0 | 8.0 | 0.00 | 0.00 | 0.00 | 44 | 1021.6 |
| 20260905130054 | 87 | 327 | 5.0 | 8.0 | 0.00 | 0.00 | 0.00 | 42 | 1021.6 |
| 20260905124551 | 86 | 345 | 3.0 | 9.0 | 0.00 | 0.00 | 0.00 | 44 | 1021.5 |
| 20260905123049 | 86 | 270 | 3.0 | 7.0 | 0.00 | 0.00 | 0.00 | 44 | 1021.6 |
| 20260905121550 | 85 | 36 | 3.0 | 10.0 | 0.00 | 0.00 | 0.00 | 46 | 1021.6 |
| 20260905120046 | 85 | 325 | 7.0 | 11.0 | 0.00 | 0.00 | 0.00 | 48 | 1021.6 |
| 20260905114546 | 84 | 47 | 5.0 | 9.0 | 0.00 | 0.00 | 0.00 | 46 | 1021.7 |
| 20260905113041 | 83 | 261 | 3.0 | 7.0 | 0.00 | 0.00 | 0.00 | 51 | 1021.6 |
| 20260905111540 | 81 | 236 | 2.0 | 7.0 | 0.00 | 0.00 | 0.00 | 54 | 1021.7 |
| 20260905110044 | 82 | 5 | 3.0 | 8.0 | 0.00 | 0.00 | 0.00 | 53 | 1021.7 |
| 20260905104533 | 82 | 229 | 4.0 | 7.0 | 0.00 | 0.00 | 0.00 | 54 | 1021.8 |
| 20260905103033 | 82 | 323 | 4.0 | 8.0 | 0.00 | 0.00 | 0.00 | 53 | 1021.9 |
| 20260905101530 | 82 | 284 | 3.0 | 8.0 | 0.00 | 0.00 | 0.00 | 54 | 1021.9 |
| 20260905100027 | 81 | 309 | 3.0 | 7.0 | 0.00 | 0.00 | 0.00 | 55 | 1022.0 |
| 20260905094524 | 80 | 51 | 2.0 | 6.0 | 0.00 | 0.00 | 0.00 | 57 | 1022.1 |
| 20260905093021 | 80 | 15 | 4.0 | 9.0 | 0.00 | 0.00 | 0.00 | 59 | 1022.0 |
| 20260905091518 | 79 | 21 | 2.0 | 7.0 | 0.00 | 0.00 | 0.00 | 60 | 1022.0 |
| 20260905090017 | 78 | 18 | 4.0 | 8.0 | 0.00 | 0.00 | 0.00 | 61 | 1021.9 |
| 20260905084510 | 76 | 9 | 3.0 | 8.0 | 0.00 | 0.00 | 0.00 | 61 | 1021.8 |
| 20260905083010 | 76 | 19 | 2.0 | 7.0 | 0.00 | 0.00 | 0.00 | 63 | 1021.8 |
| 20260905081505 | 75 | 355 | 3.0 | 8.0 | 0.00 | 0.00 | 0.00 | 65 | 1021.8 |
| 20260905080002 | 73 | 46 | 3.0 | 6.0 | 0.00 | 0.00 | 0.00 | 65 | 1021.7 |
| 20260905074558 | 72 | 66 | 0.0 | 1.0 | 0.00 | 0.00 | 0.00 | 67 | 1021.6 |
| 20260905073054 | 70 | 123 | 0.0 | 2.0 | 0.00 | 0.00 | 0.00 | 70 | 1021.4 |
| 20260905071551 | 68 | 103 | 1.0 | 3.0 | 0.00 | 0.00 | 0.00 | 73 | 1021.2 |
| 20260905070047 | 66 | 97 | 1.0 | 3.0 | 0.00 | 0.00 | 0.00 | 77 | 1021.2 |
| 20260905064538 | 65 | 186 | 0.0 | 0.0 | 0.00 | 0.00 | 0.00 | 80 | 1021.1 |
| 20260905063037 | 64 | 186 | 0.0 | 0.0 | 0.00 | 0.00 | 0.00 | 78 | 1020.9 |
| 20260905061540 | 62 | 230 | 0.0 | 0.0 | 0.00 | 0.00 | 0.00 | 83 | 1021.0 |
| 20260905060031 | 61 | 230 | 0.0 | 0.0 | 0.00 | 0.00 | 0.00 | 83 | 1020.7 |
| 20260905054532 | 61 | 175 | 0.0 | 0.0 | 0.00 | 0.00 | 0.00 | 84 | 1020.4 |
| 20260905053024 | 60 | 141 | 0.0 | 0.0 | 0.00 | 0.00 | 0.00 | 85 | 1020.3 |
| 20260905051522 | 60 | 136 | 0.0 | 0.0 | 0.00 | 0.00 | 0.00 | 85 | 1020.0 |
| 20260905050020 | 59 | 117 | 0.0 | 0.0 | 0.00 | 0.00 | 0.00 | 85 | 1020.0 |
| 20260905044526 | 59 | 117 | 0.0 | 0.0 | 0.00 | 0.00 | 0.00 | 85 | 1019.9 |
| 20260905043017 | 59 | 117 | 0.0 | 0.0 | 0.00 | 0.00 | 0.00 | 85 | 1019.8 |
| 20260905041515 | 60 | 101 | 0.0 | 0.0 | 0.00 | 0.00 | 0.00 | 84 | 1019.8 |
| 20260905040013 | 60 | 101 | 0.0 | 0.0 | 0.00 | 0.00 | 0.00 | 84 | 1019.8 |
| 20260905034511 | 61 | 101 | 0.0 | 0.0 | 0.00 | 0.00 | 0.00 | 83 | 1019.7 |
| 20260905033008 | 61 | 101 | 0.0 | 0.0 | 0.00 | 0.00 | 0.00 | 82 | 1019.5 |
| 20260905031506 | 62 | 327 | 0.0 | 0.0 | 0.00 | 0.00 | 0.00 | 82 | 1019.5 |
| 20260905030010 | 62 | 327 | 0.0 | 0.0 | 0.00 | 0.00 | 0.00 | 81 | 1019.2 |
| 20260905024502 | 63 | 327 | 0.0 | 0.0 | 0.00 | 0.00 | 0.00 | 80 | 1019.3 |
| 20260905023002 | 63 | 328 | 2.0 | 5.0 | 0.00 | 0.00 | 0.00 | 80 | 1019.2 |
| 20260905021500 | 62 | 326 | 0.0 | 0.0 | 0.00 | 0.00 | 0.00 | 82 | 1019.1 |
| 20260905020100 | 63 | 328 | 0.0 | 0.0 | 0.00 | 0.00 | 0.00 | 82 | 1019.0 |
| 20260905014602 | 63 | 335 | 0.0 | 0.0 | 0.00 | 0.00 | 0.00 | 83 | 1018.8 |
| 20260905013117 | 63 | 324 | 0.0 | 0.0 | 0.00 | 0.00 | 0.00 | 84 | 1018.8 |
| 20260905011558 | 63 | 5 | 0.0 | 0.0 | 0.00 | 0.00 | 0.00 | 82 | 1018.8 |
| 20260905010059 | 64 | 10 | 0.0 | 0.0 | 0.00 | 0.00 | 0.00 | 80 | 1019.0 |
| 20260905004627 | 65 | 10 | 0.0 | 0.0 | 0.00 | 0.00 | 0.00 | 79 | 1019.0 |
| 20260905003049 | 65 | 10 | 0.0 | 0.0 | 0.00 | 0.00 | 0.00 | 80 | 1019.0 |
| 20260905001556 | 66 | 12 | 0.0 | 0.0 | 0.00 | 0.00 | 0.00 | 79 | 1019.2 |
| 20260905000049 | 67 | 70 | 0.0 | 0.0 | 0.00 | 0.00 | 0.00 | 78 | 1018.8 |
| 20260904234540 | 67 | 104 | 0.0 | 0.0 | 0.00 | 0.00 | 0.00 | 77 | 1018.7 |
| 20260904233039 | 68 | 104 | 0.0 | 0.0 | 0.00 | 0.00 | 0.00 | 76 | 1018.6 |